ATLAS CENTAUR 2 R/B, 694

Orbit data source: Space-Track

ATLAS CENTAUR 2 R/B, 694 is space debris in LEO originally from a launch on Wed, 27 Nov 1963 UTC via an ATLAS CENTAUR launch vehicle from the Air Force Eastern Test Range (AFETR). Debris objects in space refer to the collection of defunct objects orbiting the Earth. Examples of debris include non-operational satellites, rocket bodies, and fragments generated from explosions, collisions, or faulty payload assembly.

Loading next visibility...
Identifier
694, 1963-047A
Orbit
LEO
Country
Flag of USUS
Related business
Manufacturer
GD/Convair
Mission
Spacecraft
Bus & Motor
AC R&D, Unknown motor
Mass
4,300 kg wet, 900 kg dry
Launch date (UTC)
1963-11-27 (62 years ago)
Launch vehicle
ATLAS CENTAUR
Launch site
Air Force Eastern Test Range (AFETR)
Object type
Payload
Rocket body
Debris
Shape & HBR
Unknown
Radar Cross Section
Large (>1 m²)

Expand to show TLE details & history
Last TLE update: 8 hours ago

TLE from 8 hours ago
0 ATLAS CENTAUR 2 R/B
1   694U 63047A   26145.17092160  .00002546  00000-0  30113-3 0  9991
2   694  30.3516 128.1027 0546183  34.5354 328.9514 14.12433347142440
Epoch: 2026-05-25T04:06Z
TLE epoch observation values (Epoch: 2026-05-25T04:06:07.626Z)
Latitude
-0°
Longitude
-176.19163°
Altitude
517.528 km
Speed
7.779 km/s
True Right ascension
08h 32m 24s
True Declination
0° 00' 00"
Sunlit
Object was in daylight at epoch
Visualization orbit readout
Latitude
Unknown
Longitude
Unknown
Altitude
Unknown
Speed
Unknown
Apparent Right ascension
Unknown
Apparent Declination
Unknown
Sunlit
N/A
Visualization observer readout
Local Sidereal Time
21:30:23
Azimuth
Unknown
Elevation
Unknown
Doppler factor
Unknown
Orbital elements
Apogee altitude
1,249.891 km
Perigee altitude
459.786 km
Semi-major axis
7,232.975 km
Eccentricity
0.05462
Inclination
30.3516°
RAAN
128.1027°
Arg. of periapsis
34.5354°
True anomaly
325.52538°
Mean anomaly
328.9514°
Eccentric anomaly
327.25888°
Mean motion
3.52832 °/min
Orbital period
102.03 mins
BSTAR
0.00030113
Loading maneuver chart data...
Computing Atmospheric mass density...

Documentation

Showing up to 5 results
|